SBI5314 UNAA-UNNT

Flight info

Callsign SBI5314
Flight time N/A
Altitude 36000
Route N0450F360 KERAL R241 BEGIL
Aircraft A320/M-SDE3FGHIRWY/LB1

Departure

Time N/A
Airport Abakan International Airport (UNAA)

Arrival

Time 2026-05-03 21:10
Airport Novosibirsk Tolmachevo Airport (UNNT)
Time Latitude Longitude Altitude Speed Heading
2026-05-03 20:15 53.70027 90.15587 22482 ft 341 kts 276°
2026-05-03 20:15 53.70266 90.11601 22953 ft 343 kts 276°
2026-05-03 20:15 53.70505 90.07591 23428 ft 344 kts 276°
2026-05-03 20:15 53.70743 90.03554 23859 ft 346 kts 275°
2026-05-03 20:16 53.70980 89.99511 24256 ft 347 kts 275°
2026-05-03 20:16 53.71214 89.95538 24632 ft 346 kts 275°
2026-05-03 20:16 53.71450 89.91482 25048 ft 346 kts 276°
2026-05-03 20:16 53.71683 89.87440 25467 ft 346 kts 275°
2026-05-03 20:17 53.71914 89.83389 25890 ft 347 kts 275°
2026-05-03 20:17 53.72144 89.79330 26315 ft 348 kts 275°
2026-05-03 20:17 53.72376 89.75272 26882 ft 345 kts 276°
2026-05-03 20:17 53.72603 89.71274 27538 ft 340 kts 275°
2026-05-03 20:18 53.72822 89.67329 28204 ft 335 kts 275°
2026-05-03 20:18 53.73035 89.63446 28894 ft 329 kts 275°
2026-05-03 20:18 53.73238 89.59674 29593 ft 324 kts 275°
2026-05-03 20:18 53.73440 89.55924 30276 ft 318 kts 275°
2026-05-03 20:19 53.73640 89.52245 30790 ft 316 kts 276°
2026-05-03 20:19 53.73847 89.48502 30908 ft 323 kts 275°
2026-05-03 20:19 53.74055 89.44689 31037 ft 329 kts 275°
2026-05-03 20:19 53.74261 89.40799 31159 ft 336 kts 275°
2026-05-03 20:20 53.74470 89.36828 31285 ft 342 kts 275°
2026-05-03 20:20 53.74679 89.32846 31427 ft 348 kts 275°
2026-05-03 20:20 53.74895 89.28747 31579 ft 353 kts 275°
2026-05-03 20:20 53.75113 89.24591 31727 ft 358 kts 275°
2026-05-03 20:21 53.75332 89.20366 31891 ft 364 kts 275°
2026-05-03 20:21 53.75552 89.16090 32128 ft 366 kts 275°
2026-05-03 20:21 53.75771 89.11799 32409 ft 367 kts 275°
2026-05-03 20:21 53.75991 89.07504 32686 ft 367 kts 275°
2026-05-03 20:22 53.76209 89.03196 32954 ft 368 kts 275°
2026-05-03 20:22 53.76425 88.98886 33291 ft 369 kts 275°
2026-05-03 20:22 53.76637 88.94572 33596 ft 369 kts 275°
2026-05-03 20:22 53.76845 88.90310 33959 ft 368 kts 275°
2026-05-03 20:23 53.77055 88.86000 34240 ft 368 kts 275°
2026-05-03 20:23 53.77265 88.81679 34483 ft 369 kts 275°
2026-05-03 20:23 53.77473 88.77351 34713 ft 370 kts 275°
2026-05-03 20:23 53.77682 88.73010 34938 ft 371 kts 275°
2026-05-03 20:24 53.77891 88.68653 35142 ft 372 kts 275°
2026-05-03 20:24 53.78098 88.64282 35362 ft 374 kts 275°
2026-05-03 20:24 53.78301 88.59902 35572 ft 375 kts 275°
2026-05-03 20:24 53.78503 88.55507 35772 ft 376 kts 275°
2026-05-03 20:25 53.78705 88.51153 35966 ft 377 kts 275°
2026-05-03 20:25 53.79110 88.42272 36030 ft 379 kts 275°
2026-05-03 20:26 53.79505 88.33393 36050 ft 379 kts 275°
2026-05-03 20:26 53.79894 88.24523 36049 ft 378 kts 275°
2026-05-03 20:27 53.80276 88.15635 36047 ft 379 kts 275°
2026-05-03 20:27 53.80651 88.06805 36055 ft 379 kts 275°
2026-05-03 20:28 53.81014 87.97910 36056 ft 379 kts 274°
2026-05-03 20:28 53.81186 87.89002 36056 ft 379 kts 271°
2026-05-03 20:29 53.81161 87.80076 36048 ft 380 kts 271°
2026-05-03 20:29 53.81125 87.71202 36046 ft 380 kts 271°
2026-05-03 20:30 53.81124 87.62246 36052 ft 381 kts 271°
2026-05-03 20:30 53.81148 87.53293 36055 ft 380 kts 271°
2026-05-03 20:31 53.81171 87.44341 36060 ft 381 kts 271°
2026-05-03 20:31 53.81169 87.35380 36043 ft 381 kts 271°
2026-05-03 20:32 53.81158 87.26480 36064 ft 381 kts 271°
2026-05-03 20:32 53.81148 87.17524 36075 ft 381 kts 271°
2026-05-03 20:33 53.81133 87.08569 36080 ft 380 kts 271°
2026-05-03 20:33 53.81107 86.99633 36089 ft 380 kts 271°
2026-05-03 20:34 53.81148 86.90753 36082 ft 379 kts 277°
2026-05-03 20:34 53.82663 86.82248 36082 ft 382 kts 294°
2026-05-03 20:35 53.85026 86.74191 36073 ft 382 kts 293°
2026-05-03 20:35 53.87366 86.66117 36077 ft 382 kts 293°
2026-05-03 20:36 53.89704 86.58031 36075 ft 382 kts 293°
2026-05-03 20:36 53.92013 86.49998 36078 ft 382 kts 293°
2026-05-03 20:37 53.94336 86.41893 36079 ft 382 kts 293°
2026-05-03 20:37 53.96650 86.33776 36090 ft 382 kts 292°
2026-05-03 20:38 53.98962 86.25654 36084 ft 382 kts 293°
2026-05-03 20:38 54.01260 86.17571 36085 ft 382 kts 293°
2026-05-03 20:39 54.03577 86.09437 36092 ft 382 kts 293°
2026-05-03 20:39 54.05877 86.01287 36095 ft 382 kts 292°
2026-05-03 20:40 54.08170 85.93120 36096 ft 382 kts 292°
2026-05-03 20:40 54.10461 85.84944 36098 ft 382 kts 292°
2026-05-03 20:41 54.12727 85.76814 36076 ft 383 kts 292°
2026-05-03 20:41 54.15008 85.68622 36088 ft 382 kts 292°
2026-05-03 20:42 54.17282 85.60446 36142 ft 382 kts 292°
2026-05-03 20:42 54.19551 85.52231 36120 ft 383 kts 292°
2026-05-03 20:43 54.21826 85.43996 36110 ft 384 kts 292°
2026-05-03 20:43 54.24031 85.35761 36093 ft 383 kts 290°
2026-05-03 20:43 54.25016 85.31522 35887 ft 382 kts 289°
2026-05-03 20:44 54.25918 85.27321 35643 ft 372 kts 288°
2026-05-03 20:44 54.26771 85.23200 35403 ft 363 kts 287°
2026-05-03 20:44 54.27604 85.19161 35142 ft 358 kts 287°
2026-05-03 20:44 54.28443 85.15149 34913 ft 364 kts 288°
2026-05-03 20:45 54.29317 85.11022 34691 ft 372 kts 288°
2026-05-03 20:45 54.30210 85.06854 34452 ft 374 kts 288°
2026-05-03 20:45 54.31098 85.02735 33850 ft 374 kts 288°
2026-05-03 20:45 54.31980 84.98658 33580 ft 354 kts 288°
2026-05-03 20:46 54.32820 84.94792 32970 ft 341 kts 288°
2026-05-03 20:46 54.33630 84.91037 32218 ft 332 kts 288°
2026-05-03 20:46 54.34420 84.87360 31450 ft 325 kts 288°
2026-05-03 20:46 54.35191 84.83754 30683 ft 319 kts 288°
2026-05-03 20:47 54.35946 84.80213 29880 ft 313 kts 288°
2026-05-03 20:47 54.36683 84.76733 29004 ft 308 kts 288°
2026-05-03 20:47 54.37399 84.73345 28486 ft 295 kts 288°
2026-05-03 20:47 54.38077 84.70152 28044 ft 282 kts 288°
2026-05-03 20:48 54.38744 84.67002 27633 ft 280 kts 288°
2026-05-03 20:48 54.39405 84.63864 27177 ft 279 kts 288°
2026-05-03 20:48 54.40063 84.60733 26769 ft 278 kts 288°
2026-05-03 20:48 54.40717 84.57626 26357 ft 276 kts 288°
2026-05-03 20:49 54.41368 84.54532 25951 ft 275 kts 288°
2026-05-03 20:49 54.42014 84.51449 25553 ft 273 kts 288°
2026-05-03 20:49 54.42648 84.48424 25133 ft 272 kts 289°
2026-05-03 20:49 54.43286 84.45373 24730 ft 271 kts 289°
2026-05-03 20:50 54.43919 84.42343 24324 ft 270 kts 289°
2026-05-03 20:50 54.44551 84.39313 23929 ft 269 kts 289°
2026-05-03 20:50 54.45180 84.36298 23519 ft 268 kts 289°
2026-05-03 20:50 54.45804 84.33294 23080 ft 266 kts 289°
2026-05-03 20:51 54.46425 84.30312 22712 ft 264 kts 289°
2026-05-03 20:51 54.47042 84.27356 22357 ft 262 kts 289°
2026-05-03 20:51 54.47651 84.24417 21994 ft 260 kts 289°
2026-05-03 20:51 54.48247 84.21529 21669 ft 259 kts 289°
2026-05-03 20:52 54.48847 84.18613 21337 ft 258 kts 289°
2026-05-03 20:52 54.49442 84.15727 20999 ft 257 kts 289°
2026-05-03 20:52 54.50153 84.12905 20639 ft 256 kts 296°
2026-05-03 20:52 54.51106 84.10306 20285 ft 257 kts 301°
2026-05-03 20:53 54.52096 84.07760 19932 ft 256 kts 301°
2026-05-03 20:53 54.53081 84.05215 19591 ft 255 kts 301°
2026-05-03 20:53 54.54060 84.02678 19247 ft 254 kts 300°
2026-05-03 20:53 54.55022 84.00180 18906 ft 253 kts 300°
2026-05-03 20:54 54.55998 83.97649 18554 ft 254 kts 301°
2026-05-03 20:54 54.57953 83.92569 17787 ft 254 kts 300°
2026-05-03 20:54 54.58925 83.90031 17415 ft 253 kts 300°
2026-05-03 20:55 54.59893 83.87498 17067 ft 253 kts 300°
2026-05-03 20:55 54.60861 83.84963 16672 ft 254 kts 301°
2026-05-03 20:55 54.61834 83.82422 16283 ft 254 kts 301°
2026-05-03 20:55 54.62799 83.79906 15904 ft 255 kts 301°
2026-05-03 20:56 54.63779 83.77347 15515 ft 256 kts 301°
2026-05-03 20:56 54.64762 83.74776 15120 ft 258 kts 301°
2026-05-03 20:56 54.65751 83.72183 14727 ft 259 kts 301°
2026-05-03 20:56 54.66744 83.69581 14322 ft 260 kts 301°
2026-05-03 20:57 54.67739 83.66968 13919 ft 261 kts 301°
2026-05-03 20:57 54.68739 83.64334 13473 ft 263 kts 301°
2026-05-03 20:57 54.69742 83.61687 13042 ft 264 kts 301°
2026-05-03 20:57 54.70736 83.59063 12626 ft 265 kts 301°
2026-05-03 20:58 54.71744 83.56396 12188 ft 265 kts 300°
2026-05-03 20:58 54.72605 83.53598 11836 ft 262 kts 294°
2026-05-03 20:58 54.73407 83.50781 11534 ft 261 kts 295°
2026-05-03 20:58 54.74215 83.47973 11222 ft 260 kts 295°
2026-05-03 20:59 54.75023 83.45170 10909 ft 261 kts 295°
2026-05-03 20:59 54.75833 83.42363 10592 ft 261 kts 295°
2026-05-03 20:59 54.76640 83.39547 10276 ft 261 kts 295°
2026-05-03 20:59 54.77436 83.36766 9961 ft 262 kts 295°
2026-05-03 21:00 54.78243 83.33945 9625 ft 260 kts 295°
2026-05-03 21:00 54.78513 83.33000 9517 ft 260 kts 295°
2026-05-03 21:00 54.79848 83.28320 8992 ft 259 kts 295°
2026-05-03 21:00 54.80635 83.25553 8684 ft 257 kts 296°
2026-05-03 21:01 54.81427 83.22765 8369 ft 257 kts 296°
2026-05-03 21:01 54.82214 83.19990 8069 ft 255 kts 296°
2026-05-03 21:01 54.82995 83.17244 7744 ft 253 kts 296°
2026-05-03 21:01 54.83782 83.14573 7430 ft 250 kts 302°
2026-05-03 21:02 54.84917 83.12344 7120 ft 246 kts 321°
2026-05-03 21:02 54.86396 83.10903 6798 ft 244 kts 339°
2026-05-03 21:02 54.88046 83.10223 6429 ft 243 kts 346°
2026-05-03 21:02 54.89682 83.09639 6075 ft 234 kts 345°
2026-05-03 21:03 54.91234 83.09076 5772 ft 221 kts 344°
2026-05-03 21:03 54.92617 83.08162 5496 ft 207 kts 327°
2026-05-03 21:03 54.93743 83.06642 5234 ft 204 kts 312°
2026-05-03 21:03 54.94675 83.04799 4990 ft 203 kts 310°
2026-05-03 21:04 54.95605 83.02960 4724 ft 202 kts 310°
2026-05-03 21:04 54.96524 83.01155 4462 ft 202 kts 310°
2026-05-03 21:04 54.97449 82.99335 4209 ft 200 kts 310°
2026-05-03 21:04 54.98358 82.97542 3947 ft 194 kts 310°
2026-05-03 21:05 54.99233 82.95817 3700 ft 186 kts 310°
2026-05-03 21:05 55.00067 82.94166 3497 ft 176 kts 310°
2026-05-03 21:05 55.00847 82.92623 3265 ft 165 kts 309°
2026-05-03 21:05 55.01585 82.91155 3048 ft 156 kts 309°
2026-05-03 21:06 55.02285 82.89763 2849 ft 149 kts 309°
2026-05-03 21:06 55.02863 82.88332 2662 ft 142 kts 293°
2026-05-03 21:06 55.03094 82.86725 2524 ft 139 kts 269°
2026-05-03 21:06 55.02980 82.85076 2380 ft 135 kts 266°
2026-05-03 21:07 55.02864 82.83462 2199 ft 133 kts 264°
2026-05-03 21:07 55.02736 82.81870 2033 ft 133 kts 264°
2026-05-03 21:07 55.02603 82.80301 1874 ft 130 kts 263°
2026-05-03 21:07 55.02468 82.78741 1680 ft 130 kts 263°
2026-05-03 21:08 55.02331 82.77185 1491 ft 130 kts 263°
2026-05-03 21:08 55.02195 82.75657 1311 ft 129 kts 262°
2026-05-03 21:08 55.02058 82.74114 1127 ft 129 kts 262°
2026-05-03 21:08 55.01919 82.72568 950 ft 129 kts 261°
2026-05-03 21:09 55.01781 82.71025 779 ft 130 kts 261°
2026-05-03 21:09 55.01646 82.69469 613 ft 130 kts 261°
2026-05-03 21:09 55.01497 82.67920 428 ft 130 kts 260°
2026-05-03 21:09 55.01367 82.66452 375 ft 109 kts 262°
2026-05-03 21:10 55.01280 82.65465 373 ft 46 kts 261°
2026-05-03 21:10 55.01231 82.65074 373 ft 19 kts 219°
2026-05-03 21:10 55.01130 82.65075 373 ft 0 kts 169°
2026-05-03 21:10 55.01102 82.65083 373 ft 14 kts 172°
2026-05-03 21:11 55.00990 82.65110 373 ft 17 kts 171°
2026-05-03 21:11 55.00886 82.65177 373 ft 15 kts 111°
2026-05-03 21:11 55.00888 82.65340 373 ft 13 kts 83°
2026-05-03 21:11 55.00903 82.65484 373 ft 12 kts 79°
2026-05-03 21:12 55.00914 82.65615 373 ft 10 kts 82°
2026-05-03 21:12 55.00925 82.65739 373 ft 14 kts 81°
2026-05-03 21:12 55.00940 82.65908 373 ft 14 kts 81°
2026-05-03 21:12 55.00954 82.66067 373 ft 13 kts 81°
2026-05-03 21:13 55.00985 82.66198 373 ft 11 kts 67°
2026-05-03 21:13 55.00980 82.66312 373 ft 9 kts 137°
2026-05-03 21:13 55.00955 82.66330 373 ft 1 kts 169°
2026-05-03 21:13 55.00951 82.66331 373 ft 0 kts 169°
2026-05-03 21:14 55.00947 82.66333 373 ft 2 kts 169°
2026-05-03 21:14 55.00941 82.66335 373 ft 0 kts 169°